Madigan Hospital, WA

4:36 PM PDT on August 31, 2016 (GMT -0700)
Gray Army Air Field

Weather History for KGRF - January, 2013

Change the Weather History Date:

Thursday, January 10, 2013

  Actual Average Record
Temperature  
Mean Temperature 33 °F -  
Max Temperature 36 °F 44 °F 57 °F (1999)
Min Temperature 30 °F 33 °F 24 °F (2005)
Degree Days  
Heating Degree Days 32    
Moisture  
Dew Point 32 °F    
Average Humidity 96    
Maximum Humidity 100    
Minimum Humidity 87    
Precipitation  
Precipitation 0.00 in - - ()
Sea Level Pressure  
Sea Level Pressure 30.07 in    
Wind  
Wind Speed 3 mph (South)    
Max Wind Speed 6 mph    
Max Gust Speed -    
Visibility 9 miles    
Events Rain , Snow    
Averages and records for this station are not official NWS values.
T = Trace of Precipitation, MM = Missing Value Source: NWS Daily Summary

Daily Weather History Graph

Daily Weather History Graph

Search for Another Location

Airport or City:

Trip Planner

Search our weather history database for the weather conditions in past years. The results will help you decide how hot, cold, wet, or windy it might be!

Date:

Astronomy

Jan. 10, 2013 Rise Set
Actual Time 7:54 AM PST 4:42 PM PST
Civil Twilight 7:19 AM PST 5:16 PM PST
Nautical Twilight 6:41 AM PST 5:54 PM PST
Astronomical Twilight 6:04 AM PST 6:31 PM PST
Moon 6:38 AM PST (1/10) 3:57 PM PST (1/10)
Length of Visible Light 9h 57m
Length of Day
8h 47m
Waning Crescent, 1% of the Moon is Illuminated
Jan 10
Waning Crescent
Jan 11
New
Jan 18
First Quarter
Jan 26
Full
Feb 3
Last Quarter

Hourly Weather History & Observations

Time (PST) Temp. Windchill Dew Point Humidity Pressure Visibility Wind Dir Wind Speed Gust Speed Precip Events Conditions
12:58 AM 32.7 °F 27.3 °F 32.0 °F 97% 29.97 in 10.0 mi SE 5.8 mph - N/A   Clear
1:58 AM 30.7 °F - 30.2 °F 98% 29.98 in 10.0 mi Calm Calm - N/A   Clear
2:43 AM 30.2 °F 25.4 °F 30.2 °F 100% 29.97 in 10.0 mi ENE 4.6 mph - N/A   Mostly Cloudy
2:58 AM 30.9 °F 27.5 °F 30.6 °F 99% 29.99 in 10.0 mi ENE 3.5 mph - N/A   Overcast
3:07 AM 32.0 °F 28.7 °F 32.0 °F 100% 29.98 in 10.0 mi SW 3.5 mph - N/A   Overcast
3:37 AM 32.0 °F - 32.0 °F 100% 29.97 in 10.0 mi Calm Calm - N/A   Overcast
3:58 AM 30.7 °F - 30.4 °F 99% 30.00 in 10.0 mi Variable 1.2 mph - N/A   Overcast
4:03 AM 32.0 °F - 32.0 °F 100% 29.97 in 10.0 mi Calm Calm - N/A   Overcast
4:58 AM 32.5 °F - 32.4 °F 99% 30.01 in 10.0 mi Calm Calm - N/A   Overcast
5:58 AM 32.0 °F - 31.8 °F 99% 30.02 in 10.0 mi East 2.3 mph - N/A   Overcast
6:18 AM 32.0 °F - 32.0 °F 100% 30.01 in 10.0 mi South 1.2 mph - N/A   Overcast
6:23 AM 32.0 °F - 32.0 °F 100% 30.01 in 10.0 mi South 1.2 mph - N/A   Overcast
6:38 AM 32.0 °F - 32.0 °F 100% 30.02 in 10.0 mi Calm Calm - N/A   Overcast
6:58 AM 32.5 °F - 32.2 °F 99% 30.04 in 10.0 mi SE 1.2 mph - N/A   Overcast
7:55 AM 32.0 °F - 32.0 °F 100% 30.05 in 8.0 mi South 2.3 mph - N/A   Overcast
8:25 AM 32.0 °F - 32.0 °F 100% 30.06 in 3.0 mi South 2.3 mph - N/A   Overcast
8:50 AM 32.0 °F - 32.0 °F 100% 30.07 in 8.0 mi South 1.2 mph - N/A   Overcast
8:55 AM 32.0 °F - 32.0 °F 100% 30.07 in 8.0 mi South 1.2 mph - N/A   Overcast
9:15 AM 32.0 °F 27.5 °F 32.0 °F 100% 30.07 in 1.2 mi SE 4.6 mph - N/A   Overcast
9:20 AM 32.0 °F 27.5 °F 32.0 °F 100% 30.07 in 0.8 mi SE 4.6 mph - N/A   Overcast
9:52 AM 32.0 °F 27.5 °F 32.0 °F 100% 30.07 in 1.2 mi SE 4.6 mph - N/A   Overcast
9:55 AM 32.0 °F 27.5 °F 32.0 °F 100% 30.07 in 1.5 mi SE 4.6 mph - N/A   Overcast
10:07 AM 33.8 °F - 32.0 °F 93% 30.08 in 4.0 mi SE 2.3 mph - N/A   Overcast
1:13 PM 35.6 °F 30.7 °F 33.8 °F 93% 30.06 in 10.0 mi SE 5.8 mph - N/A   Overcast
1:44 PM 35.6 °F 30.7 °F 33.8 °F 93% 30.07 in 10.0 mi South 5.8 mph - N/A   Overcast
1:55 PM 35.6 °F 30.7 °F 32.0 °F 87% 30.07 in 10.0 mi South 5.8 mph - N/A   Overcast
2:58 PM 36.5 °F 32.7 °F 33.6 °F 89% 30.09 in 10.0 mi Variable 4.6 mph - N/A   Overcast
3:53 PM 35.6 °F 31.7 °F 32.0 °F 87% 30.08 in 10.0 mi Variable 4.6 mph - N/A   Overcast
3:58 PM 36.3 °F 33.7 °F 33.1 °F 88% 30.10 in 10.0 mi Variable 3.5 mph - N/A   Overcast
4:33 PM 35.6 °F - 32.0 °F 87% 30.08 in 10.0 mi SE 2.3 mph - N/A   Overcast
4:58 PM 36.0 °F 33.3 °F 33.6 °F 91% 30.10 in 10.0 mi SSE 3.5 mph - N/A   Overcast
5:18 PM 35.6 °F - 32.0 °F 87% 30.08 in 10.0 mi South 2.3 mph - N/A   Light Drizzle
5:27 PM 35.6 °F - 32.0 °F 87% 30.08 in 10.0 mi SSW 2.3 mph - N/A   Overcast
5:37 PM 35.6 °F 32.8 °F 32.0 °F 87% 30.08 in 10.0 mi SW 3.5 mph - N/A   Overcast
5:42 PM 35.6 °F 31.7 °F 32.0 °F 87% 30.08 in 10.0 mi SW 4.6 mph - N/A   Overcast
5:52 PM 35.6 °F 31.7 °F 32.0 °F 87% 30.08 in 10.0 mi Variable 4.6 mph - N/A   Overcast
5:58 PM 35.8 °F 33.0 °F 33.4 °F 91% 30.10 in 10.0 mi Variable 3.5 mph - 0.00 in   Overcast
6:03 PM 35.6 °F - 32.0 °F 87% 30.08 in 10.0 mi WSW 2.3 mph - N/A   Overcast
6:13 PM 35.6 °F 31.7 °F 32.0 °F 87% 30.08 in 10.0 mi SW 4.6 mph - N/A   Overcast
6:23 PM 35.6 °F 32.8 °F 33.8 °F 93% 30.08 in 10.0 mi Variable 3.5 mph - N/A   Overcast
6:33 PM 35.6 °F 31.7 °F 32.0 °F 87% 30.08 in 10.0 mi SW 4.6 mph - N/A   Mostly Cloudy
6:41 PM 35.6 °F - 33.8 °F 93% 30.08 in 10.0 mi SW 2.3 mph - N/A   Overcast
6:58 PM 34.7 °F - 33.6 °F 96% 30.10 in 10.0 mi South 2.3 mph - N/A   Overcast
7:58 PM 35.2 °F - 33.6 °F 94% 30.09 in 10.0 mi Calm Calm - N/A   Overcast
8:29 PM 33.8 °F - 33.8 °F 100% 30.09 in 10.0 mi Calm Calm - N/A Rain Light Rain
8:43 PM 33.8 °F - 33.8 °F 100% 30.09 in 10.0 mi WSW 1.2 mph - N/A   Overcast
8:51 PM 33.8 °F - 33.8 °F 100% 30.09 in 10.0 mi WNW 2.3 mph - N/A Rain Light Rain
8:54 PM 33.8 °F - 33.8 °F 100% 30.10 in 8.0 mi NW 1.2 mph - N/A Rain Light Rain
8:58 PM 34.5 °F - 34.0 °F 98% 30.10 in 7.0 mi NNW 1.2 mph - 0.00 in Rain , Snow Light Rain
9:04 PM 33.8 °F - 32.0 °F 93% 30.09 in 7.0 mi North - - N/A Rain Light Freezing Rain
9:09 PM 33.8 °F 30.8 °F 32.0 °F 93% 30.09 in 10.0 mi SSW 3.5 mph - N/A Rain Light Freezing Rain
9:19 PM 33.8 °F 29.6 °F 32.0 °F 93% 30.09 in 10.0 mi SSW 4.6 mph - N/A Rain Light Freezing Rain
9:28 PM 33.8 °F 28.6 °F 32.0 °F 93% 30.09 in 10.0 mi South 5.8 mph - N/A   Mostly Cloudy
9:33 PM 33.8 °F 29.6 °F 32.0 °F 93% 30.08 in 10.0 mi SSE 4.6 mph - N/A   Mostly Cloudy
9:55 PM 32.0 °F - 32.0 °F 100% 30.10 in 10.0 mi NNE 1.2 mph - N/A   Mostly Cloudy
10:09 PM 32.0 °F - 32.0 °F 100% 30.10 in 10.0 mi Calm Calm - N/A   Overcast
10:37 PM 32.0 °F - 32.0 °F 100% 30.10 in 10.0 mi East 2.3 mph - N/A   Overcast
10:55 PM 32.0 °F - 32.0 °F 100% 30.11 in 10.0 mi South 1.2 mph - N/A   Overcast
11:12 PM 32.0 °F - 32.0 °F 100% 30.11 in 10.0 mi Calm Calm - N/A   Overcast
11:35 PM 32.0 °F 28.7 °F 32.0 °F 100% 30.11 in 10.0 mi SE 3.5 mph - N/A Rain Light Rain
11:40 PM 32.0 °F - 32.0 °F 100% 30.11 in 10.0 mi SE 2.3 mph - N/A Rain Light Rain
11:49 PM 32.0 °F - 32.0 °F 100% 30.11 in 10.0 mi SE 1.2 mph - N/A   Mostly Cloudy
11:55 PM 32.0 °F - 32.0 °F 100% 30.11 in 10.0 mi Calm Calm - N/A   Overcast